LiveATC.Net - Listen to live air traffic control over the Internet!


ICAO: KOMA  IATA: OMA   Airport: Eppley Airfield
City: Omaha   State/Province: Nebraska
Country: United States   Continent: North America
KOMA METAR Weather: KOMA 171352Z 15007KT 10SM CLR 07/04 A2996 RMK AO2 SLP151 T00670039
KOMA Flight Activity (FlightAware)
KOMA Airport Info   (iFlightPlanner)
KOMA VFR Sectional Chart   (iFlightPlanner) 
KOMA IFR Low Chart   (iFlightPlanner) 

KOMA Del/Gnd/Twr
Feed Status: UP   Listeners: 0
Listen in your browser - HTML5 player (in browser, HTML5)
Click here to listen with your own player (launches your MP3 player)
KOMA Del/Gnd/Twr Audio Archives
FacilityFrequency
Omaha Clearance Delivery119.900
Omaha Ground121.900
Omaha Tower132.100
Sponsored by:
Nebraska Flight Center and LiveATC.net

NOTICE

Unauthorized use prohibited. See LiveATC.net Terms of Service


Airport/ARTCC Code
Frequency Search
(e.g., 124.400, 128.75)
Site-wide search
 


Browse LiveATC Feeds
Top 50 LiveATC Feeds
LiveATC Feed Map
Bad Weather Areas

LiveATC FAQ
Offer LiveATC feed
Contact LiveATC.net
Press Inquiries

LiveATC on iPhone
LiveATC on Android

Windows Phone
Windows 8/10

LiveATC Mobile
(Mobile browser)

ATC Audio Archives
Interesting Recordings

LiveATC Forums


Home Page
About LiveATC.net
Make a Donation
Terms of Use
Privacy Policy

Canadian Air Freqs

AIRMETs/SIGMETs

FAA Airport Status
Nat'l Airspace Status
Arrival Demand Charts


Server Software By:
Icecast.org
Liquidsoap